Wetterdaten: Donnerstag, 02.01.2014
Datum Zeit Temperatur Luftfeuchte Luftdruck Regen Wind Richtung Richtung Taupunkt Windchill Windben
02.01.2014 00:00 -2,9 C 78 % 1010,4 hPa 0,0 l/m 0,2 km/h (0 Bft) O-SO 112 -6,2 C -2,9 C 2,3 km/h (1 Bft)
02.01.2014 00:05 -2,4 C 78 % 1010,1 hPa 0,0 l/m 0,8 km/h (0 Bft) N-NO 22 -5,7 C -2,7 C 2,7 km/h (1 Bft)
02.01.2014 00:10 -1,8 C 77 % 1010,1 hPa 0,0 l/m 1,4 km/h (1 Bft) O 90 -5,3 C -2,2 C 1,6 km/h (1 Bft)
02.01.2014 00:15 -2,3 C 76 % 1010,1 hPa 0,0 l/m 1,1 km/h (1 Bft) O 90 -5,9 C -1,9 C 0,0 km/h (0 Bft)
02.01.2014 00:20 -2,7 C 76 % 1010,1 hPa 0,0 l/m 0,6 km/h (0 Bft) N 360 -6,3 C -2,2 C 2,6 km/h (1 Bft)
02.01.2014 00:25 -2,6 C 76 % 1009,8 hPa 0,0 l/m 1,3 km/h (1 Bft) NO 45 -6,2 C -2,4 C 4,0 km/h (1 Bft)
02.01.2014 00:30 -2,0 C 76 % 1009,8 hPa 0,0 l/m 2,3 km/h (1 Bft) NO 45 -5,6 C -2,2 C 0,0 km/h (0 Bft)
02.01.2014 00:35 -2,0 C 76 % 1009,8 hPa 0,0 l/m 1,3 km/h (1 Bft) O-NO 67 -5,6 C -1,8 C 4,8 km/h (1 Bft)
02.01.2014 00:40 -2,2 C 76 % 1009,8 hPa 0,0 l/m 0,5 km/h (0 Bft) W 270 -5,8 C -1,7 C 4,2 km/h (1 Bft)
02.01.2014 00:43 -2,5 C 76 % 1009,4 hPa 0,0 l/m 0,5 km/h (0 Bft) W-SW 247 -6,1 C -1,8 C 2,7 km/h (1 Bft)
02.01.2014 00:45 -2,5 C 76 % 1009,4 hPa 0,0 l/m 0,5 km/h (0 Bft) W-SW 247 -6,1 C -1,8 C 2,7 km/h (1 Bft)
02.01.2014 00:50 -2,5 C 76 % 1009,4 hPa 0,0 l/m 0,5 km/h (0 Bft) W-SW 247 -6,1 C -2,0 C 0,0 km/h (0 Bft)
02.01.2014 00:55 -2,5 C 76 % 1009,4 hPa 0,0 l/m 0,5 km/h (0 Bft) W-SW 247 -6,1 C -1,9 C 1,6 km/h (1 Bft)
02.01.2014 01:00 -2,3 C 76 % 1009,4 hPa 0,0 l/m 0,5 km/h (0 Bft) N-NO 22 -5,9 C -1,9 C 0,0 km/h (0 Bft)
02.01.2014 01:05 -2,3 C 75 % 1008,9 hPa 0,0 l/m 0,3 km/h (0 Bft) N-NO 22 -6,1 C -1,8 C 0,0 km/h (0 Bft)
02.01.2014 01:10 -2,4 C 75 % 1008,9 hPa 0,0 l/m 0,3 km/h (0 Bft) N 360 -6,2 C -2,1 C 0,0 km/h (0 Bft)
02.01.2014 01:15 -1,8 C 75 % 1008,9 hPa 0,0 l/m 0,8 km/h (0 Bft) NW 315 -5,6 C -2,2 C 3,5 km/h (1 Bft)
02.01.2014 01:20 -1,9 C 74 % 1008,9 hPa 0,0 l/m 0,5 km/h (0 Bft) N-NW 337 -5,9 C -2,0 C 0,0 km/h (0 Bft)
02.01.2014 01:25 -1,7 C 73 % 1008,7 hPa 0,0 l/m 0,3 km/h (0 Bft) NO 45 -5,9 C -1,9 C 0,0 km/h (0 Bft)
02.01.2014 01:30 -1,2 C 73 % 1008,7 hPa 0,0 l/m 1,0 km/h (0 Bft) NO 45 -5,4 C -1,7 C 2,4 km/h (1 Bft)
02.01.2014 01:35 -0,7 C 71 % 1008,7 hPa 0,0 l/m 1,1 km/h (1 Bft) NO 45 -5,3 C -1,4 C 0,0 km/h (0 Bft)
02.01.2014 01:40 -1,3 C 70 % 1008,7 hPa 0,0 l/m 1,0 km/h (0 Bft) NO 45 -6,0 C -1,0 C 5,0 km/h (1 Bft)
02.01.2014 01:45 -1,9 C 69 % 1008,6 hPa 0,0 l/m 0,8 km/h (0 Bft) NO 45 -6,8 C -1,1 C 0,0 km/h (0 Bft)
02.01.2014 01:50 -2,0 C 70 % 1008,6 hPa 0,0 l/m 0,5 km/h (0 Bft) NO 45 -6,7 C -1,6 C 0,0 km/h (0 Bft)
02.01.2014 01:55 -1,6 C 70 % 1008,6 hPa 0,0 l/m 0,5 km/h (0 Bft) NO 45 -6,3 C -1,7 C 0,0 km/h (0 Bft)
02.01.2014 02:00 -1,8 C 70 % 1008,6 hPa 0,0 l/m 0,3 km/h (0 Bft) NO 45 -6,5 C -1,8 C 0,0 km/h (0 Bft)
02.01.2014 02:05 -2,2 C 69 % 1008,4 hPa 0,0 l/m 0,0 km/h (0 Bft) NO 45 -7,1 C -1,9 C 0,0 km/h (0 Bft)
02.01.2014 02:10 -2,3 C 70 % 1008,4 hPa 0,0 l/m 0,8 km/h (0 Bft) S-SW 202 -7,0 C -2,0 C 2,4 km/h (1 Bft)
02.01.2014 02:15 -2,5 C 70 % 1008,4 hPa 0,0 l/m 1,0 km/h (0 Bft) S-SW 202 -7,2 C -2,1 C 0,0 km/h (0 Bft)
02.01.2014 02:20 -2,5 C 71 % 1008,4 hPa 0,0 l/m 1,1 km/h (1 Bft) S-SW 202 -7,0 C -2,4 C 4,7 km/h (1 Bft)
02.01.2014 02:25 -2,6 C 71 % 1008,4 hPa 0,0 l/m 1,1 km/h (1 Bft) S 180 -7,1 C -2,4 C 2,9 km/h (1 Bft)
02.01.2014 02:30 -1,2 C 72 % 1008,4 hPa 0,0 l/m 1,4 km/h (1 Bft) O-SO 112 -5,6 C -2,2 C 3,7 km/h (1 Bft)
02.01.2014 02:35 -1,6 C 70 % 1008,4 hPa 0,0 l/m 1,6 km/h (1 Bft) S 180 -6,3 C -2,0 C 0,0 km/h (0 Bft)
02.01.2014 02:40 -2,9 C 69 % 1008,4 hPa 0,0 l/m 0,6 km/h (0 Bft) S 180 -7,8 C -2,6 C 0,0 km/h (0 Bft)
02.01.2014 02:45 -3,2 C 69 % 1008,4 hPa 0,0 l/m 0,0 km/h (0 Bft) O-SO 112 -8,1 C -2,9 C 2,7 km/h (1 Bft)
02.01.2014 02:50 -2,9 C 71 % 1008,4 hPa 0,0 l/m 0,5 km/h (0 Bft) SO 135 -7,4 C -3,1 C 0,0 km/h (0 Bft)
02.01.2014 02:55 -2,9 C 71 % 1008,4 hPa 0,0 l/m 0,5 km/h (0 Bft) S-SO 157 -7,4 C -3,0 C 0,0 km/h (0 Bft)
02.01.2014 03:00 -3,1 C 72 % 1008,4 hPa 0,0 l/m 0,3 km/h (0 Bft) O-SO 112 -7,4 C -3,1 C 3,1 km/h (1 Bft)
02.01.2014 03:05 -2,9 C 73 % 1008,3 hPa 0,0 l/m 1,0 km/h (0 Bft) S 180 -7,0 C -2,9 C 0,0 km/h (0 Bft)
02.01.2014 03:10 -3,2 C 73 % 1008,3 hPa 0,0 l/m 1,3 km/h (1 Bft) SO 135 -7,3 C -2,7 C 0,0 km/h (0 Bft)
02.01.2014 03:15 -2,9 C 73 % 1008,3 hPa 0,0 l/m 0,5 km/h (0 Bft) S 180 -7,0 C -2,6 C 0,0 km/h (0 Bft)
02.01.2014 03:20 -3,5 C 73 % 1008,3 hPa 0,0 l/m 0,0 km/h (0 Bft) S 180 -7,6 C -2,8 C 0,0 km/h (0 Bft)
02.01.2014 03:25 -3,2 C 74 % 1008,6 hPa 0,0 l/m 0,3 km/h (0 Bft) O-SO 112 -7,2 C -3,1 C 0,0 km/h (0 Bft)
02.01.2014 03:30 -3,0 C 74 % 1008,6 hPa 0,0 l/m 0,3 km/h (0 Bft) O-SO 112 -7,0 C -3,0 C 0,0 km/h (0 Bft)
02.01.2014 03:35 -2,8 C 74 % 1008,6 hPa 0,0 l/m 0,0 km/h (0 Bft) O-SO 112 -6,8 C -2,8 C 0,0 km/h (0 Bft)
02.01.2014 03:40 -2,6 C 75 % 1008,6 hPa 0,0 l/m 0,6 km/h (0 Bft) SO 135 -6,4 C -2,8 C 0,0 km/h (0 Bft)
02.01.2014 03:45 -2,9 C 75 % 1008,4 hPa 0,0 l/m 0,8 km/h (0 Bft) S 180 -6,7 C -2,6 C 0,0 km/h (0 Bft)
02.01.2014 03:50 -2,9 C 75 % 1008,4 hPa 0,0 l/m 0,2 km/h (0 Bft) S 180 -6,7 C -2,6 C 0,0 km/h (0 Bft)
02.01.2014 03:55 -3,2 C 75 % 1008,4 hPa 0,0 l/m 0,2 km/h (0 Bft) O-SO 112 -7,0 C -2,6 C 0,0 km/h (0 Bft)
02.01.2014 04:00 -3,3 C 75 % 1008,4 hPa 0,0 l/m 0,5 km/h (0 Bft) O-SO 112 -7,1 C -2,9 C 0,0 km/h (0 Bft)
02.01.2014 04:05 -3,1 C 76 % 1008,4 hPa 0,0 l/m 1,4 km/h (1 Bft) N 360 -6,7 C -3,0 C 2,3 km/h (1 Bft)
02.01.2014 04:10 -3,0 C 76 % 1008,4 hPa 0,0 l/m 2,4 km/h (1 Bft) N-NO 22 -6,6 C -3,1 C 5,1 km/h (1 Bft)
02.01.2014 04:15 -2,2 C 76 % 1008,4 hPa 0,0 l/m 2,6 km/h (1 Bft) NO 45 -5,8 C -3,1 C 1,9 km/h (1 Bft)
02.01.2014 04:20 -1,8 C 74 % 1008,4 hPa 0,0 l/m 1,8 km/h (1 Bft) O 90 -5,8 C -2,4 C 2,9 km/h (1 Bft)
02.01.2014 04:25 -1,3 C 73 % 1008,2 hPa 0,0 l/m 1,8 km/h (1 Bft) O-NO 67 -5,5 C -2,2 C 0,0 km/h (0 Bft)
02.01.2014 04:30 -2,9 C 71 % 1008,2 hPa 0,0 l/m 1,3 km/h (1 Bft) NO 45 -7,4 C -2,5 C 3,2 km/h (1 Bft)
02.01.2014 04:35 -3,2 C 72 % 1008,2 hPa 0,0 l/m 0,8 km/h (0 Bft) O-SO 112 -7,5 C -2,7 C 4,3 km/h (1 Bft)
02.01.2014 04:40 -2,7 C 73 % 1008,2 hPa 0,0 l/m 2,6 km/h (1 Bft) NO 45 -6,9 C -3,2 C 7,6 km/h (2 Bft)
02.01.2014 04:45 -2,7 C 74 % 1008,2 hPa 0,0 l/m 2,3 km/h (1 Bft) NO 45 -6,7 C -2,7 C 0,0 km/h (0 Bft)
02.01.2014 04:50 -2,8 C 74 % 1008,2 hPa 0,0 l/m 0,3 km/h (0 Bft) NO 45 -6,8 C -2,4 C 0,0 km/h (0 Bft)
02.01.2014 04:55 -2,9 C 74 % 1008,2 hPa 0,0 l/m 0,0 km/h (0 Bft) NO 45 -6,9 C -2,5 C 0,0 km/h (0 Bft)
02.01.2014 05:00 -2,9 C 74 % 1008,2 hPa 0,0 l/m 0,0 km/h (0 Bft) NO 45 -6,9 C -2,5 C 0,0 km/h (0 Bft)
02.01.2014 05:05 -2,9 C 74 % 1008,2 hPa 0,0 l/m 0,5 km/h (0 Bft) NO 45 -6,9 C -2,6 C 0,0 km/h (0 Bft)
02.01.2014 05:10 -3,0 C 74 % 1008,2 hPa 0,0 l/m 0,8 km/h (0 Bft) SO 135 -7,0 C -2,5 C 3,1 km/h (1 Bft)
02.01.2014 05:15 -3,1 C 74 % 1008,2 hPa 0,0 l/m 0,5 km/h (0 Bft) SO 135 -7,1 C -2,5 C 0,0 km/h (0 Bft)
02.01.2014 05:20 -3,2 C 74 % 1008,2 hPa 0,0 l/m 0,3 km/h (0 Bft) SO 135 -7,2 C -2,8 C 0,0 km/h (0 Bft)
02.01.2014 05:25 -3,2 C 75 % 1008,2 hPa 0,0 l/m 0,0 km/h (0 Bft) SO 135 -7,0 C -2,9 C 0,0 km/h (0 Bft)
02.01.2014 05:30 -2,7 C 75 % 1008,2 hPa 0,0 l/m 0,8 km/h (0 Bft) O 90 -6,5 C -2,9 C 1,6 km/h (1 Bft)
02.01.2014 05:35 -2,4 C 75 % 1008,2 hPa 0,0 l/m 1,0 km/h (0 Bft) O-NO 67 -6,2 C -2,6 C 0,0 km/h (0 Bft)
02.01.2014 05:40 -2,9 C 74 % 1008,2 hPa 0,0 l/m 0,2 km/h (0 Bft) O-SO 112 -6,9 C -2,6 C 0,0 km/h (0 Bft)
02.01.2014 05:45 -2,9 C 74 % 1008,2 hPa 0,0 l/m 0,0 km/h (0 Bft) O-SO 112 -6,9 C -2,6 C 0,0 km/h (0 Bft)
02.01.2014 05:50 -3,2 C 74 % 1008,2 hPa 0,0 l/m 0,0 km/h (0 Bft) O-SO 112 -7,2 C -2,8 C 0,0 km/h (0 Bft)
02.01.2014 05:55 -3,3 C 75 % 1008,2 hPa 0,0 l/m 0,0 km/h (0 Bft) O-SO 112 -7,1 C -2,9 C 0,0 km/h (0 Bft)
02.01.2014 06:00 -3,4 C 75 % 1008,2 hPa 0,0 l/m 0,3 km/h (0 Bft) O-SO 112 -7,2 C -3,0 C 0,0 km/h (0 Bft)
02.01.2014 06:05 -3,4 C 75 % 1008,2 hPa 0,0 l/m 0,3 km/h (0 Bft) O-SO 112 -7,2 C -3,0 C 0,0 km/h (0 Bft)
02.01.2014 06:10 -3,3 C 76 % 1008,2 hPa 0,0 l/m 0,0 km/h (0 Bft) O-SO 112 -6,9 C -3,0 C 0,0 km/h (0 Bft)
02.01.2014 06:15 -2,8 C 76 % 1008,2 hPa 0,0 l/m 0,2 km/h (0 Bft) O-SO 112 -6,4 C -2,6 C 2,3 km/h (1 Bft)
02.01.2014 06:20 -3,0 C 76 % 1008,2 hPa 0,0 l/m 0,2 km/h (0 Bft) O-SO 112 -6,6 C -2,6 C 0,0 km/h (0 Bft)
02.01.2014 06:25 -3,1 C 76 % 1008,2 hPa 0,0 l/m 0,2 km/h (0 Bft) O-SO 112 -6,7 C -2,7 C 0,0 km/h (0 Bft)
02.01.2014 06:30 -3,0 C 76 % 1008,2 hPa 0,0 l/m 0,2 km/h (0 Bft) O-SO 112 -6,6 C -2,8 C 0,0 km/h (0 Bft)
02.01.2014 06:35 -3,2 C 76 % 1008,2 hPa 0,0 l/m 0,2 km/h (0 Bft) O-SO 112 -6,8 C -2,7 C 0,0 km/h (0 Bft)
02.01.2014 06:38 -2,7 C 76 % 1008,2 hPa 0,0 l/m 0,0 km/h (0 Bft) O-SO 112 -6,3 C -2,8 C 0,0 km/h (0 Bft)
02.01.2014 06:40 -2,7 C 76 % 1008,2 hPa 0,0 l/m 0,0 km/h (0 Bft) O-SO 112 -6,3 C -2,8 C 0,0 km/h (0 Bft)
02.01.2014 06:45 -2,8 C 76 % 1008,2 hPa 0,0 l/m 0,0 km/h (0 Bft) O-SO 112 -6,4 C -2,7 C 0,0 km/h (0 Bft)
02.01.2014 06:50 -2,6 C 76 % 1008,2 hPa 0,0 l/m 0,0 km/h (0 Bft) O-SO 112 -6,2 C -2,6 C 0,0 km/h (0 Bft)
02.01.2014 06:55 -2,5 C 76 % 1008,2 hPa 0,0 l/m 0,0 km/h (0 Bft) O-SO 112 -6,1 C -2,4 C 0,0 km/h (0 Bft)
02.01.2014 07:00 -2,6 C 76 % 1008,2 hPa 0,0 l/m 0,6 km/h (0 Bft) O-SO 112 -6,2 C -2,3 C 0,0 km/h (0 Bft)
02.01.2014 07:05 -2,4 C 76 % 1008,2 hPa 0,0 l/m 0,8 km/h (0 Bft) SO 135 -6,0 C -2,2 C 0,0 km/h (0 Bft)
02.01.2014 07:10 -2,6 C 76 % 1008,2 hPa 0,0 l/m 0,3 km/h (0 Bft) SO 135 -6,2 C -2,2 C 0,0 km/h (0 Bft)
02.01.2014 07:15 -2,8 C 76 % 1008,2 hPa 0,0 l/m 0,3 km/h (0 Bft) O-SO 112 -6,4 C -2,3 C 1,6 km/h (1 Bft)
02.01.2014 07:20 -2,1 C 77 % 1008,2 hPa 0,0 l/m 1,1 km/h (1 Bft) NO 45 -5,6 C -2,1 C 1,9 km/h (1 Bft)
02.01.2014 07:25 -2,2 C 77 % 1008,4 hPa 0,0 l/m 1,3 km/h (1 Bft) O-NO 67 -5,7 C -1,9 C 2,9 km/h (1 Bft)
02.01.2014 07:30 -1,8 C 77 % 1008,4 hPa 0,0 l/m 1,0 km/h (0 Bft) O-NO 67 -5,3 C -1,7 C 0,0 km/h (0 Bft)
02.01.2014 07:35 -2,0 C 76 % 1008,4 hPa 0,0 l/m 0,6 km/h (0 Bft) O-NO 67 -5,6 C -1,7 C 0,0 km/h (0 Bft)
02.01.2014 07:40 -1,9 C 76 % 1008,4 hPa 0,0 l/m 1,0 km/h (0 Bft) NO 45 -5,6 C -1,7 C 1,8 km/h (1 Bft)
02.01.2014 07:45 -1,4 C 77 % 1008,4 hPa 0,0 l/m 1,0 km/h (0 Bft) NO 45 -4,9 C -1,5 C 0,0 km/h (0 Bft)
02.01.2014 07:50 -1,9 C 76 % 1008,4 hPa 0,0 l/m 0,2 km/h (0 Bft) O-SO 112 -5,6 C -1,3 C 1,9 km/h (1 Bft)
02.01.2014 07:55 -1,9 C 76 % 1008,4 hPa 0,0 l/m 0,3 km/h (0 Bft) O-SO 112 -5,6 C -1,3 C 0,0 km/h (0 Bft)
02.01.2014 08:00 -1,9 C 76 % 1008,4 hPa 0,0 l/m 0,3 km/h (0 Bft) O-SO 112 -5,6 C -1,4 C 0,0 km/h (0 Bft)
02.01.2014 08:05 -1,9 C 76 % 1008,4 hPa 0,0 l/m 0,0 km/h (0 Bft) O-SO 112 -5,6 C -1,3 C 0,0 km/h (0 Bft)
02.01.2014 08:10 -2,0 C 76 % 1008,4 hPa 0,0 l/m 0,0 km/h (0 Bft) O-SO 112 -5,6 C -1,3 C 0,0 km/h (0 Bft)
02.01.2014 08:15 -1,8 C 77 % 1008,4 hPa 0,0 l/m 0,3 km/h (0 Bft) NO 45 -5,3 C -1,4 C 3,1 km/h (1 Bft)
02.01.2014 08:20 -1,1 C 76 % 1008,4 hPa 0,0 l/m 1,1 km/h (1 Bft) O-SO 112 -4,8 C -1,0 C 0,0 km/h (0 Bft)
02.01.2014 08:25 -1,4 C 76 % 1008,6 hPa 0,0 l/m 1,1 km/h (1 Bft) O-SO 112 -5,1 C -1,1 C 0,0 km/h (0 Bft)
02.01.2014 08:30 -1,7 C 76 % 1008,6 hPa 0,0 l/m 0,6 km/h (0 Bft) W-NW 292 -5,4 C -1,1 C 0,0 km/h (0 Bft)
02.01.2014 08:35 -1,7 C 76 % 1008,6 hPa 0,0 l/m 1,1 km/h (1 Bft) N 360 -5,4 C -1,2 C 3,4 km/h (1 Bft)
02.01.2014 08:40 0,6 C 74 % 1008,6 hPa 0,0 l/m 3,7 km/h (1 Bft) O-NO 67 -3,5 C -1,7 C 6,6 km/h (2 Bft)
02.01.2014 08:45 1,1 C 69 % 1009,2 hPa 0,0 l/m 5,6 km/h (1 Bft) NO 45 -3,9 C -2,0 C 7,2 km/h (2 Bft)
02.01.2014 08:50 1,6 C 64 % 1009,2 hPa 0,0 l/m 5,1 km/h (1 Bft) NO 45 -4,5 C -1,1 C 6,6 km/h (2 Bft)
02.01.2014 08:55 1,1 C 63 % 1009,2 hPa 0,0 l/m 3,7 km/h (1 Bft) O-SO 112 -5,1 C -0,2 C 0,0 km/h (0 Bft)
02.01.2014 09:00 -0,4 C 66 % 1009,2 hPa 0,0 l/m 1,4 km/h (1 Bft) O-SO 112 -6,0 C 0,4 C 0,0 km/h (0 Bft)
02.01.2014 09:05 -0,5 C 68 % 1009,4 hPa 0,0 l/m 0,2 km/h (0 Bft) NO 45 -5,7 C 0,1 C 0,0 km/h (0 Bft)
02.01.2014 09:10 -0,5 C 69 % 1009,4 hPa 0,0 l/m 0,2 km/h (0 Bft) NO 45 -5,5 C 0,0 C 0,0 km/h (0 Bft)
02.01.2014 09:15 -0,1 C 70 % 1009,4 hPa 0,0 l/m 0,5 km/h (0 Bft) O 90 -4,9 C 0,0 C 0,0 km/h (0 Bft)
02.01.2014 09:20 0,4 C 69 % 1009,4 hPa 0,0 l/m 1,0 km/h (0 Bft) O-SO 112 -4,6 C 0,2 C 0,0 km/h (0 Bft)
02.01.2014 09:25 0,0 C 69 % 1009,8 hPa 0,0 l/m 1,1 km/h (1 Bft) NO 45 -5,0 C 0,1 C 2,1 km/h (1 Bft)
02.01.2014 09:30 0,1 C 70 % 1009,8 hPa 0,0 l/m 1,0 km/h (0 Bft) NO 45 -4,7 C 0,1 C 0,0 km/h (0 Bft)
02.01.2014 09:35 0,2 C 70 % 1009,8 hPa 0,0 l/m 0,5 km/h (0 Bft) O-NO 67 -4,6 C 0,3 C 0,0 km/h (0 Bft)
02.01.2014 09:40 0,6 C 71 % 1009,8 hPa 0,0 l/m 0,0 km/h (0 Bft) O-NO 67 -4,0 C 0,6 C 0,0 km/h (0 Bft)
02.01.2014 09:45 0,6 C 70 % 1010,1 hPa 0,0 l/m 0,0 km/h (0 Bft) O 90 -4,2 C 0,9 C 0,0 km/h (0 Bft)
02.01.2014 09:50 0,6 C 70 % 1010,1 hPa 0,0 l/m 0,0 km/h (0 Bft) O 90 -4,2 C 1,1 C 0,0 km/h (0 Bft)
02.01.2014 09:55 0,6 C 70 % 1010,1 hPa 0,0 l/m 1,0 km/h (0 Bft) NO 45 -4,2 C 1,2 C 2,6 km/h (1 Bft)
02.01.2014 10:00 0,9 C 71 % 1010,1 hPa 0,0 l/m 1,3 km/h (1 Bft) NO 45 -3,7 C 1,3 C 1,9 km/h (1 Bft)
02.01.2014 10:05 1,6 C 70 % 1010,5 hPa 0,0 l/m 1,0 km/h (0 Bft) O-SO 112 -3,3 C 1,6 C 0,0 km/h (0 Bft)
02.01.2014 10:10 1,4 C 70 % 1010,5 hPa 0,0 l/m 0,3 km/h (0 Bft) O-SO 112 -3,5 C 1,9 C 0,0 km/h (0 Bft)
02.01.2014 10:15 1,7 C 70 % 1010,5 hPa 0,0 l/m 0,0 km/h (0 Bft) NO 45 -3,2 C 2,1 C 0,0 km/h (0 Bft)
02.01.2014 10:20 1,5 C 70 % 1010,5 hPa 0,0 l/m 0,2 km/h (0 Bft) O-SO 112 -3,4 C 2,2 C 0,0 km/h (0 Bft)
02.01.2014 10:25 1,4 C 69 % 1010,8 hPa 0,0 l/m 0,2 km/h (0 Bft) O-SO 112 -3,7 C 2,2 C 0,0 km/h (0 Bft)
02.01.2014 10:30 1,5 C 70 % 1010,8 hPa 0,0 l/m 0,2 km/h (0 Bft) N-NO 22 -3,4 C 2,2 C 0,0 km/h (0 Bft)
02.01.2014 10:35 1,5 C 70 % 1010,8 hPa 0,0 l/m 0,3 km/h (0 Bft) N-NO 22 -3,4 C 2,1 C 0,0 km/h (0 Bft)
02.01.2014 10:40 1,6 C 70 % 1010,8 hPa 0,0 l/m 0,6 km/h (0 Bft) O-SO 112 -3,3 C 2,3 C 6,6 km/h (2 Bft)
02.01.2014 10:45 1,8 C 71 % 1011,0 hPa 0,0 l/m 1,0 km/h (0 Bft) O-SO 112 -2,9 C 2,8 C 0,0 km/h (0 Bft)
02.01.2014 10:50 2,0 C 69 % 1011,0 hPa 0,0 l/m 0,8 km/h (0 Bft) NO 45 -3,1 C 2,9 C 2,1 km/h (1 Bft)
02.01.2014 10:55 2,1 C 70 % 1011,0 hPa 0,0 l/m 0,3 km/h (0 Bft) NO 45 -2,8 C 3,0 C 0,0 km/h (0 Bft)
02.01.2014 11:00 2,5 C 69 % 1011,0 hPa 0,0 l/m 1,0 km/h (0 Bft) O-SO 112 -2,6 C 3,1 C 2,4 km/h (1 Bft)
02.01.2014 11:05 2,4 C 69 % 1010,9 hPa 0,0 l/m 1,3 km/h (1 Bft) S 180 -2,7 C 3,4 C 0,0 km/h (0 Bft)
02.01.2014 11:10 2,3 C 68 % 1010,9 hPa 0,0 l/m 1,1 km/h (1 Bft) N-NO 22 -3,0 C 3,5 C 5,1 km/h (1 Bft)
02.01.2014 11:15 2,6 C 68 % 1010,9 hPa 0,0 l/m 1,1 km/h (1 Bft) O-SO 112 -2,7 C 3,5 C 0,0 km/h (0 Bft)
02.01.2014 11:20 2,9 C 68 % 1010,9 hPa 0,0 l/m 2,6 km/h (1 Bft) O-SO 112 -2,4 C 3,6 C 2,9 km/h (1 Bft)
02.01.2014 11:25 3,0 C 68 % 1010,7 hPa 0,0 l/m 1,9 km/h (1 Bft) S 180 -2,3 C 3,7 C 2,1 km/h (1 Bft)
02.01.2014 11:30 3,2 C 68 % 1010,7 hPa 0,0 l/m 0,6 km/h (0 Bft) S 180 -2,1 C 4,0 C 0,0 km/h (0 Bft)
02.01.2014 11:35 3,3 C 67 % 1010,7 hPa 0,0 l/m 1,0 km/h (0 Bft) O-SO 112 -2,2 C 4,3 C 3,5 km/h (1 Bft)
02.01.2014 11:40 3,4 C 67 % 1010,7 hPa 0,0 l/m 0,8 km/h (0 Bft) SO 135 -2,1 C 4,4 C 0,0 km/h (0 Bft)
02.01.2014 11:45 3,3 C 65 % 1010,6 hPa 0,0 l/m 0,8 km/h (0 Bft) O-SO 112 -2,6 C 4,5 C 0,0 km/h (0 Bft)
02.01.2014 11:50 3,3 C 65 % 1010,6 hPa 0,0 l/m 1,0 km/h (0 Bft) O-SO 112 -2,6 C 4,4 C 2,4 km/h (1 Bft)
02.01.2014 11:55 3,6 C 65 % 1010,6 hPa 0,0 l/m 1,6 km/h (1 Bft) N 360 -2,4 C 4,5 C 5,0 km/h (1 Bft)
02.01.2014 12:00 3,8 C 66 % 1010,6 hPa 0,0 l/m 2,6 km/h (1 Bft) N 360 -2,0 C 4,8 C 0,0 km/h (0 Bft)
02.01.2014 12:05 4,0 C 66 % 1010,5 hPa 0,0 l/m 2,3 km/h (1 Bft) N 360 -1,8 C 5,0 C 0,0 km/h (0 Bft)
02.01.2014 12:10 3,9 C 66 % 1010,5 hPa 0,0 l/m 0,8 km/h (0 Bft) S 180 -1,9 C 5,1 C 0,0 km/h (0 Bft)
02.01.2014 12:15 3,9 C 66 % 1010,5 hPa 0,0 l/m 0,8 km/h (0 Bft) S 180 -1,9 C 5,1 C 0,0 km/h (0 Bft)
02.01.2014 12:20 4,1 C 66 % 1010,5 hPa 0,0 l/m 0,6 km/h (0 Bft) SW 225 -1,7 C 5,2 C 2,1 km/h (1 Bft)
02.01.2014 12:25 3,6 C 66 % 1010,8 hPa 0,0 l/m 1,3 km/h (1 Bft) S-SW 202 -2,1 C 5,0 C 3,5 km/h (1 Bft)
02.01.2014 12:30 3,5 C 67 % 1010,8 hPa 0,0 l/m 2,4 km/h (1 Bft) S-SW 202 -2,0 C 4,7 C 5,0 km/h (1 Bft)
02.01.2014 12:35 3,7 C 65 % 1010,8 hPa 0,0 l/m 2,9 km/h (1 Bft) SO 135 -2,3 C 4,7 C 2,9 km/h (1 Bft)
02.01.2014 12:38 4,0 C 63 % 1010,8 hPa 0,0 l/m 3,5 km/h (1 Bft) O 90 -2,4 C 4,4 C 6,0 km/h (2 Bft)
02.01.2014 12:40 4,0 C 63 % 1010,8 hPa 0,0 l/m 3,5 km/h (1 Bft) O 90 -2,4 C 4,4 C 6,0 km/h (2 Bft)
02.01.2014 12:45 4,2 C 60 % 1010,9 hPa 0,0 l/m 4,2 km/h (1 Bft) O-NO 67 -2,9 C 4,1 C 4,3 km/h (1 Bft)
02.01.2014 12:50 4,3 C 61 % 1010,9 hPa 0,0 l/m 4,8 km/h (1 Bft) NO 45 -2,5 C 3,9 C 7,6 km/h (2 Bft)
02.01.2014 12:55 4,6 C 62 % 1010,9 hPa 0,0 l/m 4,8 km/h (1 Bft) NO 45 -2,0 C 4,0 C 6,6 km/h (2 Bft)
02.01.2014 13:00 4,8 C 60 % 1010,9 hPa 0,0 l/m 5,3 km/h (1 Bft) N-NO 22 -2,3 C 4,4 C 5,1 km/h (1 Bft)
02.01.2014 13:05 4,9 C 60 % 1010,2 hPa 0,0 l/m 4,5 km/h (1 Bft) O 90 -2,2 C 5,1 C 4,8 km/h (1 Bft)
02.01.2014 13:10 5,1 C 59 % 1010,2 hPa 0,0 l/m 3,5 km/h (1 Bft) O 90 -2,2 C 5,7 C 2,6 km/h (1 Bft)
02.01.2014 13:15 4,9 C 60 % 1010,2 hPa 0,0 l/m 2,4 km/h (1 Bft) O 90 -2,2 C 6,0 C 3,2 km/h (1 Bft)
02.01.2014 13:20 4,3 C 62 % 1010,2 hPa 0,0 l/m 1,4 km/h (1 Bft) S 180 -2,3 C 5,7 C 0,0 km/h (0 Bft)
02.01.2014 13:25 4,1 C 64 % 1010,2 hPa 0,0 l/m 1,1 km/h (1 Bft) S 180 -2,1 C 5,5 C 0,0 km/h (0 Bft)
02.01.2014 13:30 4,2 C 65 % 1010,2 hPa 0,0 l/m 0,5 km/h (0 Bft) S 180 -1,8 C 5,4 C 0,0 km/h (0 Bft)
02.01.2014 13:35 4,3 C 65 % 1010,2 hPa 0,0 l/m 0,5 km/h (0 Bft) S 180 -1,7 C 5,4 C 0,0 km/h (0 Bft)
02.01.2014 13:40 4,5 C 65 % 1010,2 hPa 0,0 l/m 0,5 km/h (0 Bft) S 180 -1,5 C 5,5 C 0,0 km/h (0 Bft)
02.01.2014 13:45 4,7 C 65 % 1010,4 hPa 0,0 l/m 0,5 km/h (0 Bft) S 180 -1,3 C 5,6 C 2,3 km/h (1 Bft)
02.01.2014 13:50 4,6 C 65 % 1010,4 hPa 0,0 l/m 1,8 km/h (1 Bft) S-SW 202 -1,4 C 5,7 C 5,3 km/h (1 Bft)
02.01.2014 13:55 4,5 C 65 % 1010,4 hPa 0,0 l/m 3,1 km/h (1 Bft) O 90 -1,5 C 5,6 C 4,3 km/h (1 Bft)
02.01.2014 14:00 4,6 C 65 % 1010,4 hPa 0,0 l/m 2,4 km/h (1 Bft) NO 45 -1,4 C 5,5 C 0,0 km/h (0 Bft)
02.01.2014 14:05 4,7 C 64 % 1010,8 hPa 0,0 l/m 2,3 km/h (1 Bft) S 180 -1,5 C 5,7 C 6,8 km/h (2 Bft)
02.01.2014 14:10 4,6 C 65 % 1010,8 hPa 0,0 l/m 4,3 km/h (1 Bft) S 180 -1,4 C 4,9 C 9,0 km/h (2 Bft)
02.01.2014 14:15 4,9 C 63 % 1010,8 hPa 0,0 l/m 6,1 km/h (2 Bft) S 180 -1,5 C 4,4 C 9,8 km/h (2 Bft)
02.01.2014 14:20 5,1 C 63 % 1010,8 hPa 0,0 l/m 5,1 km/h (1 Bft) SO 135 -1,4 C 5,1 C 2,7 km/h (1 Bft)
02.01.2014 14:25 5,2 C 61 % 1011,3 hPa 0,0 l/m 3,7 km/h (1 Bft) S 180 -1,7 C 5,9 C 3,9 km/h (1 Bft)
02.01.2014 14:30 5,3 C 61 % 1011,3 hPa 0,0 l/m 2,4 km/h (1 Bft) O-SO 112 -1,6 C 6,1 C 3,5 km/h (1 Bft)
02.01.2014 14:35 5,4 C 59 % 1011,3 hPa 0,0 l/m 3,4 km/h (1 Bft) O-SO 112 -2,0 C 6,2 C 5,3 km/h (1 Bft)
02.01.2014 14:40 5,5 C 59 % 1011,3 hPa 0,0 l/m 4,0 km/h (1 Bft) O-SO 112 -1,9 C 5,9 C 3,5 km/h (1 Bft)
02.01.2014 14:45 5,5 C 58 % 1011,1 hPa 0,0 l/m 3,9 km/h (1 Bft) S 180 -2,1 C 6,0 C 4,2 km/h (1 Bft)
02.01.2014 14:50 5,6 C 58 % 1011,1 hPa 0,0 l/m 3,4 km/h (1 Bft) SO 135 -2,0 C 6,2 C 4,8 km/h (1 Bft)
02.01.2014 14:55 5,4 C 59 % 1011,1 hPa 0,0 l/m 3,1 km/h (1 Bft) S-SO 157 -2,0 C 6,3 C 3,2 km/h (1 Bft)
02.01.2014 15:00 5,5 C 59 % 1011,1 hPa 0,0 l/m 3,2 km/h (1 Bft) O-SO 112 -1,9 C 6,3 C 5,5 km/h (1 Bft)
02.01.2014 15:05 5,6 C 58 % 1011,4 hPa 0,0 l/m 4,3 km/h (1 Bft) O-SO 112 -2,0 C 5,9 C 7,6 km/h (2 Bft)
02.01.2014 15:10 5,5 C 59 % 1011,4 hPa 0,0 l/m 5,6 km/h (1 Bft) O 90 -1,9 C 5,6 C 11,1 km/h (2 Bft)
02.01.2014 15:15 5,4 C 59 % 1011,4 hPa 0,0 l/m 5,0 km/h (1 Bft) O-SO 112 -2,0 C 5,8 C 7,6 km/h (2 Bft)
02.01.2014 15:20 5,2 C 61 % 1011,4 hPa 0,0 l/m 3,1 km/h (1 Bft) S-SO 157 -1,7 C 6,3 C 6,1 km/h (2 Bft)
02.01.2014 15:25 5,1 C 61 % 1011,5 hPa 0,0 l/m 2,9 km/h (1 Bft) SO 135 -1,8 C 6,3 C 4,2 km/h (1 Bft)
02.01.2014 15:30 5,5 C 60 % 1011,5 hPa 0,0 l/m 3,5 km/h (1 Bft) O-SO 112 -1,6 C 6,1 C 6,6 km/h (2 Bft)
02.01.2014 15:35 5,4 C 60 % 1011,5 hPa 0,0 l/m 3,4 km/h (1 Bft) O 90 -1,7 C 6,2 C 0,0 km/h (0 Bft)
02.01.2014 15:40 5,0 C 62 % 1011,5 hPa 0,0 l/m 2,4 km/h (1 Bft) O-NO 67 -1,7 C 6,1 C 1,6 km/h (1 Bft)
02.01.2014 15:45 4,8 C 62 % 1011,6 hPa 0,0 l/m 1,1 km/h (1 Bft) SO 135 -1,9 C 6,1 C 0,0 km/h (0 Bft)
02.01.2014 15:50 4,4 C 64 % 1011,6 hPa 0,0 l/m 0,3 km/h (0 Bft) S-SO 157 -1,8 C 5,7 C 3,4 km/h (1 Bft)
02.01.2014 15:55 4,4 C 64 % 1011,6 hPa 0,0 l/m 1,1 km/h (1 Bft) S-SO 157 -1,8 C 5,5 C 2,9 km/h (1 Bft)
02.01.2014 16:00 4,7 C 64 % 1011,6 hPa 0,0 l/m 3,1 km/h (1 Bft) O 90 -1,5 C 5,4 C 6,4 km/h (2 Bft)
02.01.2014 16:05 4,7 C 63 % 1011,8 hPa 0,0 l/m 3,5 km/h (1 Bft) O 90 -1,7 C 5,0 C 2,6 km/h (1 Bft)
02.01.2014 16:10 4,5 C 64 % 1011,8 hPa 0,0 l/m 3,9 km/h (1 Bft) O 90 -1,7 C 4,6 C 0,0 km/h (0 Bft)
02.01.2014 16:15 3,7 C 65 % 1011,8 hPa 0,0 l/m 1,8 km/h (1 Bft) O 90 -2,3 C 4,6 C 0,0 km/h (0 Bft)
02.01.2014 16:20 3,8 C 66 % 1011,8 hPa 0,0 l/m 0,3 km/h (0 Bft) O 90 -2,0 C 4,2 C 0,0 km/h (0 Bft)
02.01.2014 16:25 3,5 C 67 % 1011,8 hPa 0,0 l/m 0,5 km/h (0 Bft) O 90 -2,0 C 4,2 C 0,0 km/h (0 Bft)
02.01.2014 16:30 4,1 C 67 % 1011,8 hPa 0,0 l/m 2,1 km/h (1 Bft) O-NO 67 -1,5 C 4,2 C 6,4 km/h (2 Bft)
02.01.2014 16:35 4,3 C 67 % 1011,8 hPa 0,0 l/m 3,4 km/h (1 Bft) O 90 -1,3 C 4,0 C 5,1 km/h (1 Bft)
02.01.2014 16:40 4,3 C 67 % 1011,8 hPa 0,0 l/m 3,9 km/h (1 Bft) O-NO 67 -1,3 C 3,8 C 0,0 km/h (0 Bft)
02.01.2014 16:45 3,5 C 69 % 1011,6 hPa 0,0 l/m 2,7 km/h (1 Bft) O-SO 112 -1,6 C 4,1 C 2,3 km/h (1 Bft)
02.01.2014 16:50 3,4 C 70 % 1011,6 hPa 0,0 l/m 1,1 km/h (1 Bft) S 180 -1,5 C 3,8 C 3,4 km/h (1 Bft)
02.01.2014 16:55 2,8 C 72 % 1011,6 hPa 0,0 l/m 1,6 km/h (1 Bft) O 90 -1,7 C 3,6 C 1,6 km/h (1 Bft)
02.01.2014 17:00 2,5 C 72 % 1011,6 hPa 0,0 l/m 1,4 km/h (1 Bft) O 90 -2,0 C 3,3 C 1,8 km/h (1 Bft)
02.01.2014 17:05 2,3 C 73 % 1011,7 hPa 0,0 l/m 1,1 km/h (1 Bft) O 90 -2,0 C 2,9 C 2,1 km/h (1 Bft)
02.01.2014 17:10 2,1 C 75 % 1011,7 hPa 0,0 l/m 1,3 km/h (1 Bft) N-NO 22 -1,9 C 2,6 C 3,7 km/h (1 Bft)
02.01.2014 17:15 2,4 C 76 % 1011,7 hPa 0,0 l/m 1,1 km/h (1 Bft) NO 45 -1,4 C 2,6 C 2,1 km/h (1 Bft)
02.01.2014 17:20 2,4 C 76 % 1011,7 hPa 0,0 l/m 0,8 km/h (0 Bft) O 90 -1,4 C 2,6 C 0,0 km/h (0 Bft)
02.01.2014 17:25 2,5 C 76 % 1011,8 hPa 0,0 l/m 0,3 km/h (0 Bft) O-NO 67 -1,3 C 2,6 C 2,6 km/h (1 Bft)
02.01.2014 17:30 2,6 C 76 % 1011,8 hPa 0,0 l/m 0,2 km/h (0 Bft) O-SO 112 -1,2 C 2,7 C 0,0 km/h (0 Bft)
02.01.2014 17:35 2,3 C 76 % 1011,8 hPa 0,0 l/m 0,2 km/h (0 Bft) O-SO 112 -1,5 C 2,7 C 0,0 km/h (0 Bft)
02.01.2014 17:39 1,8 C 76 % 1011,8 hPa 0,0 l/m 0,0 km/h (0 Bft) SO 135 -2,0 C 2,5 C 0,0 km/h (0 Bft)
02.01.2014 17:40 1,8 C 76 % 1011,8 hPa 0,0 l/m 0,0 km/h (0 Bft) SO 135 -2,0 C 2,5 C 0,0 km/h (0 Bft)
02.01.2014 17:45 1,4 C 76 % 1011,9 hPa 0,0 l/m 0,0 km/h (0 Bft) SO 135 -2,4 C 2,0 C 0,0 km/h (0 Bft)
02.01.2014 17:50 1,9 C 78 % 1011,9 hPa 0,0 l/m 1,0 km/h (0 Bft) O-NO 67 -1,5 C 1,6 C 5,0 km/h (1 Bft)
02.01.2014 17:55 1,8 C 78 % 1011,9 hPa 0,0 l/m 1,6 km/h (1 Bft) S-SW 202 -1,6 C 1,8 C 0,0 km/h (0 Bft)
02.01.2014 18:00 1,3 C 78 % 1011,9 hPa 0,0 l/m 1,3 km/h (1 Bft) S-SW 202 -2,1 C 1,5 C 1,6 km/h (1 Bft)
02.01.2014 18:05 1,3 C 78 % 1012,1 hPa 0,0 l/m 0,5 km/h (0 Bft) S 180 -2,1 C 1,4 C 0,0 km/h (0 Bft)
02.01.2014 18:10 1,2 C 78 % 1012,1 hPa 0,0 l/m 0,3 km/h (0 Bft) S 180 -2,2 C 1,2 C 0,0 km/h (0 Bft)
02.01.2014 18:15 1,2 C 79 % 1012,1 hPa 0,0 l/m 0,5 km/h (0 Bft) O-NO 67 -2,0 C 1,2 C 1,8 km/h (1 Bft)
02.01.2014 18:20 1,7 C 79 % 1012,1 hPa 0,0 l/m 1,0 km/h (0 Bft) SO 135 -1,5 C 1,5 C 0,0 km/h (0 Bft)
02.01.2014 18:25 1,4 C 79 % 1012,4 hPa 0,0 l/m 0,8 km/h (0 Bft) SO 135 -1,8 C 1,5 C 0,0 km/h (0 Bft)
02.01.2014 18:30 2,3 C 80 % 1012,4 hPa 0,0 l/m 1,8 km/h (1 Bft) NO 45 -0,8 C 1,6 C 5,3 km/h (1 Bft)
02.01.2014 18:35 2,3 C 79 % 1012,4 hPa 0,0 l/m 2,1 km/h (1 Bft) SO 135 -1,0 C 2,0 C 0,0 km/h (0 Bft)
02.01.2014 18:40 1,9 C 79 % 1012,4 hPa 0,0 l/m 0,8 km/h (0 Bft) SO 135 -1,3 C 2,0 C 0,0 km/h (0 Bft)
02.01.2014 18:45 1,7 C 79 % 1012,8 hPa 0,0 l/m 0,3 km/h (0 Bft) O 90 -1,5 C 2,0 C 1,9 km/h (1 Bft)
02.01.2014 18:50 1,6 C 79 % 1012,8 hPa 0,0 l/m 0,2 km/h (0 Bft) O-NO 67 -1,6 C 1,9 C 0,0 km/h (0 Bft)
02.01.2014 18:55 2,4 C 80 % 1012,8 hPa 0,0 l/m 1,0 km/h (0 Bft) O-SO 112 -0,7 C 2,0 C 0,0 km/h (0 Bft)
02.01.2014 19:00 1,9 C 79 % 1012,8 hPa 0,0 l/m 1,1 km/h (1 Bft) S-SO 157 -1,3 C 2,1 C 3,1 km/h (1 Bft)
02.01.2014 19:05 1,6 C 79 % 1012,8 hPa 0,0 l/m 0,3 km/h (0 Bft) S-SO 157 -1,6 C 2,1 C 0,0 km/h (0 Bft)
02.01.2014 19:10 2,0 C 79 % 1012,8 hPa 0,0 l/m 1,0 km/h (0 Bft) SO 135 -1,2 C 2,0 C 4,5 km/h (1 Bft)
02.01.2014 19:15 3,5 C 79 % 1012,8 hPa 0,0 l/m 1,4 km/h (1 Bft) O 90 0,2 C 2,3 C 3,7 km/h (1 Bft)
02.01.2014 19:20 2,6 C 77 % 1012,8 hPa 0,0 l/m 1,6 km/h (1 Bft) SO 135 -1,0 C 2,8 C 0,0 km/h (0 Bft)
02.01.2014 19:25 2,0 C 77 % 1013,0 hPa 0,0 l/m 0,8 km/h (0 Bft) NO 45 -1,6 C 2,6 C 0,0 km/h (0 Bft)
02.01.2014 19:30 1,9 C 78 % 1013,0 hPa 0,0 l/m 0,0 km/h (0 Bft) O-SO 112 -1,5 C 2,4 C 0,0 km/h (0 Bft)
02.01.2014 19:35 2,1 C 78 % 1013,0 hPa 0,0 l/m 0,2 km/h (0 Bft) NO 45 -1,3 C 2,5 C 2,4 km/h (1 Bft)
02.01.2014 19:40 2,1 C 79 % 1013,0 hPa 0,0 l/m 0,3 km/h (0 Bft) NO 45 -1,2 C 2,6 C 2,7 km/h (1 Bft)
02.01.2014 19:45 2,3 C 79 % 1013,4 hPa 0,0 l/m 0,6 km/h (0 Bft) O-NO 67 -1,0 C 2,7 C 3,5 km/h (1 Bft)
02.01.2014 19:50 2,7 C 79 % 1013,4 hPa 0,0 l/m 1,9 km/h (1 Bft) O 90 -0,6 C 3,1 C 3,1 km/h (1 Bft)
02.01.2014 19:55 3,0 C 78 % 1013,4 hPa 0,0 l/m 2,6 km/h (1 Bft) SO 135 -0,5 C 3,2 C 0,0 km/h (0 Bft)
02.01.2014 20:00 2,0 C 78 % 1013,4 hPa 0,0 l/m 1,6 km/h (1 Bft) W-SW 247 -1,4 C 2,7 C 0,0 km/h (0 Bft)
02.01.2014 20:05 1,8 C 78 % 1013,7 hPa 0,0 l/m 0,5 km/h (0 Bft) S 180 -1,6 C 2,5 C 2,9 km/h (1 Bft)
02.01.2014 20:10 1,8 C 78 % 1013,7 hPa 0,0 l/m 0,8 km/h (0 Bft) O 90 -1,6 C 2,1 C 0,0 km/h (0 Bft)
02.01.2014 20:15 1,9 C 79 % 1013,7 hPa 0,0 l/m 1,3 km/h (1 Bft) NO 45 -1,3 C 2,0 C 4,0 km/h (1 Bft)
02.01.2014 20:20 2,5 C 79 % 1013,7 hPa 0,0 l/m 2,6 km/h (1 Bft) O-SO 112 -0,8 C 2,2 C 5,5 km/h (1 Bft)
02.01.2014 20:25 3,3 C 78 % 1013,8 hPa 0,0 l/m 4,7 km/h (1 Bft) O-NO 67 -0,2 C 1,7 C 4,8 km/h (1 Bft)
02.01.2014 20:30 3,8 C 77 % 1013,8 hPa 0,0 l/m 5,1 km/h (1 Bft) O-SO 112 0,1 C 2,3 C 5,8 km/h (2 Bft)
02.01.2014 20:35 3,5 C 76 % 1013,8 hPa 0,0 l/m 3,9 km/h (1 Bft) SO 135 -0,3 C 2,9 C 5,0 km/h (1 Bft)
02.01.2014 20:40 3,5 C 76 % 1013,8 hPa 0,0 l/m 3,2 km/h (1 Bft) O 90 -0,3 C 3,1 C 4,7 km/h (1 Bft)
02.01.2014 20:45 3,3 C 75 % 1013,9 hPa 0,0 l/m 3,9 km/h (1 Bft) SO 135 -0,7 C 2,6 C 5,5 km/h (1 Bft)
02.01.2014 20:50 3,5 C 75 % 1013,9 hPa 0,0 l/m 4,7 km/h (1 Bft) O-SO 112 -0,5 C 2,2 C 7,1 km/h (2 Bft)
02.01.2014 20:55 3,5 C 75 % 1013,9 hPa 0,0 l/m 5,1 km/h (1 Bft) O-SO 112 -0,5 C 2,1 C 6,6 km/h (2 Bft)
02.01.2014 21:00 2,9 C 76 % 1013,9 hPa 0,0 l/m 4,3 km/h (1 Bft) S-SO 157 -0,9 C 2,4 C 1,9 km/h (1 Bft)
02.01.2014 21:05 1,7 C 76 % 1014,1 hPa 0,0 l/m 3,5 km/h (1 Bft) O-SO 112 -2,1 C 2,1 C 6,3 km/h (2 Bft)
02.01.2014 21:10 2,3 C 77 % 1014,1 hPa 0,0 l/m 4,2 km/h (1 Bft) O 90 -1,3 C 1,3 C 6,3 km/h (2 Bft)
02.01.2014 21:15 2,2 C 77 % 1014,1 hPa 0,0 l/m 5,3 km/h (1 Bft) O-SO 112 -1,4 C 0,7 C 6,1 km/h (2 Bft)
02.01.2014 21:20 1,5 C 78 % 1014,1 hPa 0,0 l/m 4,0 km/h (1 Bft) O-SO 112 -1,9 C 0,8 C 4,5 km/h (1 Bft)
02.01.2014 21:25 2,2 C 79 % 1014,2 hPa 0,0 l/m 4,3 km/h (1 Bft) O-NO 67 -1,1 C 0,8 C 7,1 km/h (2 Bft)
02.01.2014 21:30 2,5 C 79 % 1014,2 hPa 0,0 l/m 5,1 km/h (1 Bft) O 90 -0,8 C 0,9 C 5,1 km/h (1 Bft)
02.01.2014 21:35 2,0 C 78 % 1014,2 hPa 0,0 l/m 3,9 km/h (1 Bft) SO 135 -1,4 C 1,9 C 2,7 km/h (1 Bft)
02.01.2014 21:40 2,3 C 79 % 1014,2 hPa 0,0 l/m 2,1 km/h (1 Bft) O-NO 67 -1,0 C 2,5 C 0,0 km/h (0 Bft)
02.01.2014 21:45 2,0 C 79 % 1014,2 hPa 0,0 l/m 1,9 km/h (1 Bft) W-SW 247 -1,2 C 2,3 C 4,8 km/h (1 Bft)
02.01.2014 21:50 0,6 C 78 % 1014,2 hPa 0,0 l/m 1,6 km/h (1 Bft) O-SO 112 -2,8 C 1,2 C 6,1 km/h (2 Bft)
02.01.2014 21:55 1,4 C 80 % 1014,2 hPa 0,0 l/m 3,1 km/h (1 Bft) O 90 -1,7 C 0,6 C 5,8 km/h (2 Bft)
02.01.2014 22:00 1,6 C 80 % 1014,2 hPa 0,0 l/m 5,3 km/h (1 Bft) O-SO 112 -1,5 C -0,6 C 6,8 km/h (2 Bft)
02.01.2014 22:05 1,4 C 80 % 1014,2 hPa 0,0 l/m 4,7 km/h (1 Bft) O 90 -1,7 C -0,4 C 3,2 km/h (1 Bft)
02.01.2014 22:10 1,3 C 80 % 1014,2 hPa 0,0 l/m 3,5 km/h (1 Bft) NO 45 -1,8 C 0,1 C 5,8 km/h (2 Bft)
02.01.2014 22:15 1,0 C 80 % 1014,2 hPa 0,0 l/m 2,7 km/h (1 Bft) NO 45 -2,1 C 0,7 C 0,0 km/h (0 Bft)
02.01.2014 22:20 0,2 C 80 % 1014,2 hPa 0,0 l/m 0,8 km/h (0 Bft) O-NO 67 -2,8 C 0,4 C 0,0 km/h (0 Bft)
02.01.2014 22:25 0,2 C 80 % 1014,1 hPa 0,0 l/m 0,2 km/h (0 Bft) S-SO 157 -2,8 C 0,4 C 0,0 km/h (0 Bft)
02.01.2014 22:30 0,3 C 81 % 1014,1 hPa 0,0 l/m 0,3 km/h (0 Bft) S 180 -2,6 C 0,1 C 1,6 km/h (1 Bft)
02.01.2014 22:35 0,6 C 82 % 1014,1 hPa 0,0 l/m 1,1 km/h (1 Bft) O 90 -2,1 C 0,0 C 5,5 km/h (1 Bft)
02.01.2014 22:40 0,9 C 82 % 1014,1 hPa 0,0 l/m 3,7 km/h (1 Bft) O-NO 67 -1,8 C -0,6 C 5,0 km/h (1 Bft)
02.01.2014 22:45 0,7 C 82 % 1014,4 hPa 0,0 l/m 3,9 km/h (1 Bft) O 90 -2,0 C -0,7 C 0,0 km/h (0 Bft)
02.01.2014 22:50 0,1 C 82 % 1014,4 hPa 0,0 l/m 1,4 km/h (1 Bft) O 90 -2,6 C 0,0 C 0,0 km/h (0 Bft)
02.01.2014 22:55 -0,4 C 82 % 1014,4 hPa 0,0 l/m 0,8 km/h (0 Bft) W-SW 247 -3,1 C -0,3 C 0,0 km/h (0 Bft)
02.01.2014 23:00 -0,8 C 83 % 1014,4 hPa 0,0 l/m 0,8 km/h (0 Bft) N 360 -3,3 C -0,9 C 0,0 km/h (0 Bft)
02.01.2014 23:05 -0,6 C 83 % 1014,4 hPa 0,0 l/m 0,3 km/h (0 Bft) N 360 -3,1 C -1,1 C 0,0 km/h (0 Bft)
02.01.2014 23:10 -1,0 C 83 % 1014,4 hPa 0,0 l/m 0,0 km/h (0 Bft) N 360 -3,5 C -1,3 C 0,0 km/h (0 Bft)
02.01.2014 23:15 -1,3 C 83 % 1014,4 hPa 0,0 l/m 0,0 km/h (0 Bft) N 360 -3,8 C -1,6 C 0,0 km/h (0 Bft)
02.01.2014 23:20 -1,3 C 84 % 1014,4 hPa 0,0 l/m 0,0 km/h (0 Bft) S-SO 157 -3,6 C -1,7 C 0,0 km/h (0 Bft)
02.01.2014 23:25 -1,6 C 84 % 1014,5 hPa 0,0 l/m 0,0 km/h (0 Bft) SO 135 -3,9 C -1,7 C 0,0 km/h (0 Bft)
02.01.2014 23:30 -2,0 C 84 % 1014,5 hPa 0,0 l/m 0,0 km/h (0 Bft) S-SO 157 -4,3 C -2,0 C 0,0 km/h (0 Bft)
02.01.2014 23:35 -2,0 C 84 % 1014,5 hPa 0,0 l/m 0,0 km/h (0 Bft) S-SO 157 -4,3 C -2,1 C 0,0 km/h (0 Bft)
02.01.2014 23:38 -1,9 C 84 % 1014,5 hPa 0,0 l/m 0,2 km/h (0 Bft) O-SO 112 -4,2 C -2,2 C 0,0 km/h (0 Bft)
02.01.2014 23:40 -1,9 C 84 % 1014,5 hPa 0,0 l/m 0,2 km/h (0 Bft) O-SO 112 -4,2 C -2,2 C 0,0 km/h (0 Bft)
02.01.2014 23:45 -1,8 C 85 % 1014,6 hPa 0,0 l/m 0,0 km/h (0 Bft) S 180 -4,0 C -2,2 C 0,0 km/h (0 Bft)
02.01.2014 23:50 -1,9 C 85 % 1014,6 hPa 0,0 l/m 0,0 km/h (0 Bft) S-SW 202 -4,1 C -2,1 C 0,0 km/h (0 Bft)
02.01.2014 23:55 -2,0 C 85 % 1014,6 hPa 0,0 l/m 0,2 km/h (0 Bft) SW 225 -4,2 C -2,2 C 0,0 km/h (0 Bft)
_ Min-Zeit 03:20 15:05 07:20 - 23:50 - - 02:45 04:40 23:55
Minimum _ -3,5 C 58 % 1008,2 hPa - 0,0 km/h (0 Bft) - - -8,1 C -3,2 C 0,0 km/h (0 Bft)
_ Max-Zeit 15:05 23:55 23:55 23:55 14:15 - - 19:15 15:25 15:10
Maximum _ 5,6 C 85 % 1014,6 hPa 0,0 l/m 6,1 km/h
S (2 Bft)
- - 0,2 C 6,3 C 11,1 km/h
O (2 Bft)
Durchschnitt _ 0,7 C 73 % 1010,7 hPa #0,0 l/m 1,5 km/h (1 Bft) O - -3,7 C 0,9 C 1,9 km/h (1 Bft)